Content
SEND FEEDBACK

Daily
Averages
Monthly
Summary
United States of America

NEW YORK - CENTRAL PARK, NEW YORK


Home > North America > United States > New York
Elevation: 14 feet     Latitude: 40 47N     Longitude: 073 58W

WEATHER
 
SELECT A DAY
Number of Records: 148,413;   Date Range: 11/1/95 - 9/21/14
 
SHARE

PRINT THIS DATA

[ ← Previous Day ]
WEATHER ALMANAC - JANUARY 22, 2013
[ Next Day → ]
[ °C ]   °F
Weather ElementAverageHighLow
Temperature19.1 °F25 °F (1:51 am)12.9 °F (11:51 pm)
Dewpoint-0.5 °F8.1 °F (5:51 am)-8 °F (1:51 pm)
Humidity43 %59 % (9:51 am)28 % (1:51 pm)
Barometer30.04 in30.20 in (10:51 pm)29.85 in (1:51 am)
Wind Speed10.7 mph16.1 mph (4:51 pm)
Wind Gust28.8 mph (4:51 pm)
Weather ElementAverage
Visibility9.9 mi
Wind DirectionWSW (244.3 °)

Weather ElementTotal
Precipitation---
Heating Degree Days46.1 (Base 65)
Averaged from 23 records on January 22, 2013
WEATHER CONDITIONS BREAKOUT
WIND DIRECTION BREAKOUT
WEATHER BY HOUR - JANUARY 22, 2013
[ °C ]   °F
Local TimeTemperatureDewpointHumidityBarometerVisibilityWind DirectionWind SpeedGust SpeedPrecipitationEventsConditions
1:51 AM25.0 °F6.1 °F45 %29.85 in10.0 miWNW (300°)10.4 mph26.5 mphClear
2:51 AM24.1 °F3.9 °F42 %29.86 in10.0 miWNW (300°)8.1 mph19.6 mphScattered Clouds
3:51 AM23.0 °F3.9 °F44 %29.87 in10.0 miWNW (290°)10.4 mph17.3 mphClear
4:51 AM21.9 °F3.9 °F46 %29.90 in10.0 miVariable6.9 mphMostly Cloudy
5:51 AM21.0 °F8.1 °F57 %29.94 in10.0 miWest (280°)10.4 mph23.0 mphOvercast
6:51 AM19.9 °F6.1 °F55 %29.97 in10.0 miNW (310°)9.2 mph18.4 mphMostly Cloudy
7:51 AM19.0 °F3.0 °F50 %29.99 in10.0 miNW (320°)11.5 mph23.0 mphClear
8:51 AM19.0 °F3.9 °F52 %30.02 in10.0 miNorthOvercast
9:51 AM19.0 °F7.0 °F59 %30.04 in7.0 miWNW (290°)12.7 mph23.0 mphMostly Cloudy
10:51 AM19.0 °F-2.9 °F38 %30.04 in10.0 miWNW (290°)11.5 mph23.0 mphPartly Cloudy
11:51 AM21.0 °F-4.0 °F33 %30.02 in10.0 miWNW (300°)12.7 mph23.0 mphMostly Cloudy
12:51 PM21.0 °F-5.1 °F32 %30.01 in10.0 miVariable6.9 mph18.4 mphClear
1:51 PM21.0 °F-8.0 °F28 %30.01 in10.0 miWNW (290°)15.0 mph25.3 mphClear
2:51 PM19.9 °F-5.1 °F33 %30.01 in10.0 miWest (280°)15.0 mph20.7 mphClear
3:51 PM19.0 °F-5.1 °F34 %30.04 in10.0 miWNW (300°)10.4 mph27.6 mphPartly Cloudy
4:51 PM18.0 °F-4.0 °F38 %30.08 in10.0 miWNW (290°)16.1 mph28.8 mphScattered Clouds
5:51 PM18.0 °F-2.0 °F41 %30.12 in10.0 miNW (310°)8.1 mph19.6 mphClear
6:51 PM17.1 °F-0.9 °F45 %30.14 in10.0 miVariable4.6 mph18.4 mphClear
7:51 PM16.0 °F1.0 °F52 %30.16 in10.0 miWNW (290°)11.5 mph17.3 mphClear
8:51 PM16.0 °F0.0 °F49 %30.17 in10.0 miWNW (290°)10.4 mph19.6 mphOvercast
9:51 PM15.1 °F-6.0 °F39 %30.19 in10.0 miWNW (300°)11.5 mph27.6 mphPartly Cloudy
10:51 PM14.0 °F-7.1 °F39 %30.20 in10.0 miNW (310°)11.5 mph19.6 mphClear
11:51 PM12.9 °F-8.0 °F39 %30.19 in10.0 miWest (280°)10.4 mph20.7 mphClear
Hourly data recorded from KNYC, located miles away from New York - Central Park, New York







STORIES FROM OUR PARTNERS